Townsville Observation History
Time Wind Speed Temp Pressure Rel. Hum Rain
03/02:30pm NE 13-16 kts 29.3°c 1009.1 hPa 56% 0.0mm
03/02:00pm NE 13-16 kts 29.5°c 1009.2 hPa 60% 0.0mm
03/01:30pm NE 13-16 kts 29.5°c 1009.7 hPa 61% 0.0mm
03/01:00pm NE 12-15 kts 29.1°c 1010.0 hPa 61% 0.0mm
03/12:30pm NE 11-15 kts 29.5°c 1010.4 hPa 61% 0.0mm
03/12:00pm NE 12-15 kts 30.0°c 1011.0 hPa 59% 0.0mm
03/11:30am NE 12-17 kts 29.1°c 1011.4 hPa 64% 0.0mm
03/11:00am ENE 10-15 kts 29.2°c 1011.8 hPa 64% 0.0mm
03/10:30am NE 9-14 kts 28.8°c 1012.3 hPa 65% 0.0mm
03/10:00am NE 9-12 kts 28.5°c 1012.4 hPa 66% 0.0mm
03/09:30am ESE 6-9 kts 28.0°c 1012.4 hPa 72% 0.0mm
03/09:00am SE 6-9 kts 27.3°c 1012.4 hPa 71% 0.0mm
03/08:30am SE 7-9 kts 27.3°c 1012.1 hPa 71% 0.0mm
03/08:00am S 5-6 kts 26.3°c 1012.1 hPa 74% 0.0mm
03/07:30am SSW 5-6 kts 24.7°c 1012.0 hPa 83% 0.0mm
03/07:00am SSE 5-6 kts 23.3°c 1011.6 hPa 92% 0.0mm
03/06:30am CALM 0 kts 21.4°c 1011.3 hPa 97% 0.0mm
03/06:00am CALM 0 kts 21.4°c 1010.8 hPa 97% 0.0mm
03/05:30am CALM 0 kts 21.4°c 1010.6 hPa 97% 0.0mm
03/05:00am CALM 0 kts 21.7°c 1010.4 hPa 97% 0.0mm
03/04:30am CALM 0 kts 22.1°c 1010.2 hPa 95% 0.0mm
03/04:00am CALM 0 kts 22.0°c 1010.3 hPa 96% 0.0mm
03/03:30am WSW 3-4 kts 22.2°c 1010.2 hPa 95% 0.0mm
03/03:00am CALM 0 kts 22.6°c 1010.3 hPa 95% 0.0mm
03/02:30am CALM 0 kts 22.8°c 1010.5 hPa 94% 0.0mm
03/02:00am WSW 3-4 kts 23.0°c 1010.7 hPa 92% 0.0mm
03/01:30am S 4-5 kts 23.4°c 1010.9 hPa 89% 0.0mm
03/01:00am SSE 5-6 kts 23.9°c 1011.1 hPa 86% 0.0mm
03/12:30am S 5-6 kts 24.2°c 1011.6 hPa 85% 0.0mm
03/12:00am SSE 5 kts 24.4°c 1011.9 hPa 85% 0.0mm
Time Wind Speed Temp Pressure Rel. Hum Rain
02/11:30pm SSE 5-6 kts 24.6°c 1012.0 hPa 84% 0.0mm
02/11:00pm SSE 5-6 kts 25.1°c 1012.2 hPa 83% 0.0mm
02/10:30pm E 5-6 kts 25.0°c 1012.4 hPa 78% 0.0mm
02/10:00pm E 6-8 kts 24.8°c 1012.5 hPa 79% 0.0mm
02/09:30pm E 5-6 kts 25.1°c 1012.4 hPa 82% 0.0mm
02/09:00pm ESE 5-7 kts 25.6°c 1012.4 hPa 83% 0.0mm
02/08:30pm E 3-5 kts 25.9°c 1012.3 hPa 80% 0.0mm
02/08:00pm E 5-7 kts 25.9°c 1012.1 hPa 80% 0.0mm
02/07:30pm ENE 7-10 kts 26.3°c 1011.7 hPa 78% 0.0mm
02/07:00pm ENE 8-11 kts 26.4°c 1011.4 hPa 77% 0.0mm
02/06:30pm ENE 9-12 kts 26.5°c 1011.2 hPa 76% 0.0mm
02/06:00pm ENE 11-14 kts 27.0°c 1011.0 hPa 74% 0.0mm
02/05:30pm ENE 13-16 kts 27.6°c 1010.6 hPa 70% 0.0mm
02/05:00pm ENE 12-17 kts 28.2°c 1010.4 hPa 67% 0.0mm
02/04:30pm ENE 13-16 kts 28.8°c 1010.2 hPa 62% 0.0mm
02/04:00pm ENE 15-18 kts 29.1°c 1010.2 hPa 61% 0.0mm
02/03:30pm NE 14-17 kts 29.5°c 1010.1 hPa 61% 0.0mm
02/03:00pm NE 15-17 kts 29.8°c 1010.2 hPa 56% 0.0mm
02/02:30pm NE 14-17 kts 29.7°c 1010.4 hPa 58% 0.0mm
02/02:00pm NE 11-15 kts 30.4°c 1010.8 hPa 55% 0.0mm
02/01:30pm NE 10-14 kts 30.3°c 1011.3 hPa 52% 0.0mm
02/01:00pm NE 10-14 kts 29.9°c 1011.6 hPa 52% 0.0mm
02/12:30pm NE 11-14 kts 30.1°c 1012.1 hPa 52% 0.0mm
02/12:00pm NE 14-17 kts 30.2°c 1012.4 hPa 56% 0.0mm
02/11:30am E 7-14 kts 29.8°c 1013.1 hPa 60% 0.0mm
02/11:00am SE 9-14 kts 28.3°c 1013.5 hPa 59% 0.0mm
02/10:30am SE 8-12 kts 28.9°c 1013.6 hPa 59% 0.0mm
02/10:00am SE 8-13 kts 28.4°c 1013.8 hPa 62% 0.0mm
02/09:30am ESE 8-12 kts 28.4°c 1013.8 hPa 64% 0.0mm
02/09:00am SSE 8-11 kts 27.6°c 1013.9 hPa 67% 0.0mm
02/08:30am SSW 6-7 kts 26.5°c 1013.9 hPa 71% 0.0mm
02/08:00am SSW 4-5 kts 25.8°c 1013.6 hPa 76% 0.0mm
02/07:30am CALM 0 kts 24.3°c 1013.2 hPa 82% 0.0mm
02/07:00am CALM 0 kts 22.4°c 1013.1 hPa 92% 0.0mm
02/06:30am CALM 0 kts 21.4°c 1012.7 hPa 95% 0.0mm
02/06:00am CALM 0 kts 21.0°c 1012.4 hPa 95% 0.0mm
02/05:30am CALM 0 kts 21.2°c 1012.1 hPa 95% 0.0mm
02/05:00am CALM 0 kts 21.3°c 1011.8 hPa 94% 0.0mm
02/04:30am CALM 0 kts 22.1°c 1011.8 hPa 90% 0.0mm
02/04:00am SSW 5-6 kts 22.2°c 1011.8 hPa 88% 0.0mm
02/03:30am SSW 4-5 kts 23.4°c 1011.7 hPa 85% 0.0mm
02/03:00am SSW 3-5 kts 23.5°c 1011.6 hPa 85% 0.0mm
02/02:30am S 4-5 kts 23.5°c 1011.6 hPa 86% 0.0mm
02/02:00am SSE 6-7 kts 23.8°c 1012.0 hPa 85% 0.0mm
02/01:30am ESE 7-10 kts 24.7°c 1012.3 hPa 82% 0.0mm
02/01:00am ESE 7-9 kts 24.8°c 1012.5 hPa 81% 0.0mm
02/12:30am SE 7-9 kts 25.1°c 1013.0 hPa 81% 0.0mm
02/12:00am ESE 7-9 kts 25.2°c 1013.0 hPa 81% 0.0mm
Time Wind Speed Temp Pressure Rel. Hum Rain
01/11:30pm ESE 7-9 kts 25.3°c 1013.6 hPa 81% 0.0mm
01/11:00pm ESE 6-8 kts 24.8°c 1013.8 hPa 83% 0.0mm
01/10:30pm ESE 7-8 kts 25.2°c 1014.1 hPa 81% 0.0mm
01/10:00pm SSE 7-8 kts 25.4°c 1014.4 hPa 80% 0.0mm
01/09:30pm SSE 6-7 kts 25.7°c 1014.3 hPa 80% 0.0mm
01/09:00pm ESE 6-7 kts 26.0°c 1014.2 hPa 77% 0.0mm
01/08:30pm ESE 9-12 kts 26.3°c 1014.1 hPa 74% 0.0mm
01/08:00pm E 9-11 kts 26.4°c 1013.6 hPa 75% 0.0mm
01/07:30pm E 9-14 kts 26.3°c 1013.3 hPa 78% 0.0mm
01/07:00pm E 9-12 kts 26.3°c 1012.9 hPa 73% 0.0mm
01/06:30pm E 8-11 kts 26.7°c 1012.6 hPa 72% 0.0mm
01/06:00pm E 12-16 kts 27.2°c 1012.1 hPa 69% 0.0mm
01/05:30pm ENE 13-16 kts 27.9°c 1011.8 hPa 69% 0.0mm
01/05:00pm ENE 13-17 kts 28.5°c 1011.4 hPa 67% 0.0mm
01/04:30pm ENE 13-17 kts 29.0°c 1011.0 hPa 64% 0.0mm
01/04:00pm ENE 14-18 kts 29.3°c 1011.2 hPa 64% 0.0mm
01/03:30pm ENE 13-17 kts 29.7°c 1011.3 hPa 61% 0.0mm
01/03:00pm ENE 13-18 kts 30.2°c 1011.5 hPa 58% 0.0mm
01/02:30pm NE 14-18 kts 29.9°c 1011.8 hPa 55% 0.0mm
01/02:00pm ENE 15-18 kts 29.6°c 1011.8 hPa 57% 0.0mm
01/01:30pm ENE 15-18 kts 31.1°c 1012.1 hPa 52% 0.0mm
01/01:00pm ENE 15-18 kts 30.4°c 1012.3 hPa 50% 0.0mm
01/12:30pm ENE 14-18 kts 30.6°c 1012.6 hPa 51% 0.0mm
01/12:00pm ENE 13-17 kts 30.4°c 1013.1 hPa 58% 0.0mm
01/11:30am E 10-15 kts 30.6°c 1013.5 hPa 57% 0.0mm
01/11:00am E 12-15 kts 29.8°c 1014.0 hPa 54% 0.0mm
01/10:30am ESE 12-15 kts 30.0°c 1013.9 hPa 62% 0.0mm
01/10:00am ESE 11-16 kts 29.2°c 1013.8 hPa 63% 0.0mm
01/09:30am SE 8-14 kts 28.1°c 1013.9 hPa 67% 0.0mm
01/09:00am SE 8-12 kts 27.8°c 1013.9 hPa 67% 0.0mm
01/08:30am SE 7-9 kts 27.0°c 1014.0 hPa 72% 0.0mm
01/08:00am S 6-7 kts 25.7°c 1013.8 hPa 80% 0.0mm
01/07:30am S 5-7 kts 24.5°c 1013.4 hPa 85% 0.0mm
01/07:00am SSE 4-5 kts 23.5°c 1013.2 hPa 90% 0.0mm
01/06:30am SSE 6-7 kts 22.8°c 1012.8 hPa 93% 0.0mm
01/06:00am SSE 5-6 kts 22.5°c 1012.6 hPa 92% 0.0mm
01/05:30am S 5 kts 22.7°c 1012.2 hPa 91% 0.0mm
01/05:00am S 5-6 kts 22.8°c 1011.8 hPa 91% 0.0mm
01/04:30am S 5 kts 23.3°c 1011.7 hPa 89% 0.0mm
01/04:00am S 4-5 kts 23.6°c 1011.6 hPa 88% 0.0mm
01/03:30am S 5 kts 23.6°c 1011.6 hPa 89% 0.0mm
01/03:00am SSE 5-6 kts 23.4°c 1011.7 hPa 89% 0.0mm
01/02:30am ESE 6-7 kts 24.0°c 1011.8 hPa 88% 0.0mm
01/02:00am S 2-4 kts 24.4°c 1012.1 hPa 86% 0.0mm
01/01:30am SSE 2-4 kts 24.6°c 1012.4 hPa 84% 0.0mm
01/01:00am SSE 4 kts 24.5°c 1012.9 hPa 86% 0.0mm
01/12:30am ESE 4-5 kts 24.7°c 1013.3 hPa 84% 0.0mm
01/12:00am SSE 5-6 kts 24.6°c 1013.6 hPa 86% 0.0mm